Bloomington, IN

2:02 AM EST on December 07, 2019 (GMT -0500)
Monroe County

Weather History for KBMG - September, 2019

Change the Weather History Date:

Saturday, September 14, 2019

  Actual Average Record
Temperature  
Mean Temperature 70 °F 66 °F  
Max Temperature 84 °F 79 °F 89 °F (1998)
Min Temperature 55 °F 54 °F 41 °F (2014)
Degree Days  
Heating Degree Days 0 2  
Month to date heating degree days 0 12  
Since 1 July heating degree days 0 19  
Cooling Degree Days 4 3  
Month to date cooling degree days 104 65  
Year to date cooling degree days 1076 882  
Growing Degree Days 20 (Base 50)    
Moisture  
Dew Point 56 °F    
Average Humidity 71    
Maximum Humidity 93    
Minimum Humidity 34    
Precipitation  
Precipitation 0.00 in 0.11 in 0.22 in (2011)
Month to date precipitation 0.87 1.55  
Year to date precipitation 37.09 34.74  
Sea Level Pressure  
Sea Level Pressure 30.23 in    
Wind  
Wind Speed 1 mph ()    
Max Wind Speed 8 mph    
Max Gust Speed 12 mph    
Visibility 9.7 miles    
Events      
T = Trace of Precipitation, MM = Missing Value Source: Averaged Metar Reports

Daily Weather History Graph

Daily Weather History Graph

Search for Another Location

Airport or City:

Astronomy

Sep. 14, 2019 Rise Set
Actual Time 7:26 AM EDT 7:56 PM EDT
Civil Twilight 6:59 AM EDT 8:23 PM EDT
Nautical Twilight 6:28 AM EDT 8:55 PM EDT
Astronomical Twilight 5:55 AM EDT 9:27 PM EDT
Moon 8:37 PM EDT (9/14) 7:40 AM EDT (9/14)
Length of Visible Light 13h 23m
Length of Day
12h 30m
Full, 100% of the Moon is Illuminated
Sep 14
Full
Sep 21
Last Quarter
Sep 28
New
Oct 5
First Quarter
Oct 13
Full

Hourly Weather History & Observations

Time (EDT) Temp. Heat Index Dew Point Humidity Pressure Visibility Wind Dir Wind Speed Gust Speed Precip Events Conditions
12:53 AM 64.9 °F - 57.0 °F 75% 30.17 in 10.0 mi Calm Calm - N/A   Clear
1:53 AM 60.1 °F - 57.0 °F 90% 30.17 in 10.0 mi Calm Calm - N/A   Clear
2:53 AM 60.1 °F - 55.9 °F 86% 30.19 in 10.0 mi Calm Calm - N/A   Clear
3:53 AM 57.9 °F - 55.0 °F 90% 30.19 in 10.0 mi Calm Calm - N/A   Clear
4:53 AM 59.0 °F - 55.9 °F 90% 30.21 in 10.0 mi Calm Calm - N/A   Clear
5:53 AM 59.0 °F - 55.9 °F 90% 30.22 in 10.0 mi Calm Calm - N/A   Clear
6:53 AM 59.0 °F - 55.9 °F 90% 30.24 in 10.0 mi Calm Calm - N/A   Clear
7:31 AM 55.9 °F - 54.0 °F 93% 30.27 in 2.0 mi Calm Calm - N/A   Clear
7:40 AM 55.9 °F - 54.0 °F 93% 30.28 in 10.0 mi Calm Calm - N/A   Clear
7:53 AM 57.0 °F - 55.0 °F 93% 30.27 in 10.0 mi Calm Calm - N/A   Clear
8:53 AM 64.0 °F - 59.0 °F 84% 30.28 in 10.0 mi Calm Calm - N/A   Clear
9:53 AM 69.1 °F - 60.1 °F 73% 30.29 in 10.0 mi Calm Calm - N/A   Clear
10:53 AM 73.9 °F - 57.0 °F 55% 30.29 in 10.0 mi North 5.8 mph - N/A   Clear
11:53 AM 75.9 °F - 54.0 °F 46% 30.28 in 10.0 mi Variable 3.5 mph - N/A   Clear
12:53 PM 78.1 °F - 52.0 °F 40% 30.27 in 10.0 mi Calm Calm - N/A   Clear
1:53 PM 80.1 °F 79.9 °F 53.1 °F 39% 30.26 in 10.0 mi Variable 3.5 mph - N/A   Clear
2:53 PM 82.0 °F - 52.0 °F 35% 30.23 in 10.0 mi NE 3.5 mph - N/A   Clear
3:53 PM 82.0 °F 81.2 °F 53.1 °F 37% 30.22 in 10.0 mi SSE 5.8 mph - N/A   Clear
4:53 PM 82.0 °F 81.6 °F 55.9 °F 41% 30.19 in 10.0 mi South 6.9 mph - N/A   Clear
5:53 PM 81.0 °F 80.8 °F 55.9 °F 42% 30.19 in 10.0 mi South 3.5 mph - N/A   Clear
6:53 PM 80.1 °F 80.4 °F 57.0 °F 45% 30.18 in 10.0 mi Calm Calm - N/A   Clear
7:53 PM 72.0 °F - 61.0 °F 68% 30.18 in 10.0 mi SE 3.5 mph - N/A   Clear
8:53 PM 66.0 °F - 61.0 °F 84% 30.19 in 10.0 mi Calm Calm - N/A   Clear
9:53 PM 63.0 °F - 59.0 °F 87% 30.21 in 10.0 mi Calm Calm - N/A   Clear
10:53 PM 62.1 °F - 57.9 °F 86% 30.21 in 10.0 mi Calm Calm - N/A   Clear
11:53 PM 61.0 °F - 57.9 °F 90% 30.21 in 10.0 mi Calm Calm - N/A   Clear